Regional Weather Roundup
Issued by NWS Grand Forks, ND

Home | Current Version | Previous Version | Graphics & Text | Print | Product List | Glossary On
Versions: 1 2 3 4 5 6 7 8 9 10 11 12 13 14 15 16 17 18 19 20 21 22 23 24 25 26 27 28 29 30 31 32 33 34 35 36 37 38 39 40 41 42 43 44 45 46 47 48 49 50
000
ASUS43 KFGF 280731
RWRFGF
PRAIRIE TO PINES  WEATHER ROUNDUP
NATIONAL WEATHER SERVICE EASTERN NORTH DAKOTA/GRAND FORKS ND
200 AM CDT SAT MAY 28 2016

 **SATELLITE DATA USED TO AUGMENT SKY COVER AT AUTOMATED STATIONS**
 *****  WEATHER ACROSS EASTERN NORTH DAKOTA  *****

CITY           SKY/WX    TMP DP  RH WIND       PRES   REMARKS
GRAND FORKS    CLOUDY    62  58  86 S5        29.81R
GRAND FRKS AFB CLOUDY    61  59  94 NW3       29.82S
GRAND FRKS NWS   N/A     61 N/A N/A SW2         N/A
DEVILS LAKE    CLOUDY    57  55  93 N13       29.86R
FARGO          FAIR      61  57  87 E3        29.79F
WAHPETON ARPT  CLOUDY    61  54  77 CALM      29.80S
$$

 ***** WEATHER ACROSS CENTRAL AND WESTERN NORTH DAKOTA  *****

CITY           SKY/WX    TMP DP  RH WIND       PRES   REMARKS
BISMARCK       CLOUDY    56  50  80 CALM      29.84S
MINOT          CLOUDY    56  54  93 NE9       29.88R FOG
JAMESTOWN      FAIR      60  55  83 N6        29.81R
MINOT AFB      CLOUDY    54  54 100 NE8       29.88R FOG
GARRISON         N/A     57  54  89 E12       29.86R
WILLISTON      CLOUDY    57  53  86 E7        29.87S
DICKINSON      PTCLDY    48  45  89 NE5       29.85R
HETTINGER      CLEAR     41  38  89 CALM      29.87S
$$

 *****  OTHER AIRPORT OBSERVATIONS IN OUR AREA  *****

CITY           SKY/WX    TMP DP  RH WIND       PRES   REMARKS
WALHALLA       FAIR      57  57 100 N13       29.85R
GRAFTON AIRPOR CLOUDY    59  59 100 N7        29.84R
VALLEY CITY AR CLOUDY    59  59 100 CALM      29.83F
CANDO          CLOUDY    55  55 100 N13       29.89R
CAVALIER APRT  CLOUDY    57  57 100 N9        29.84R
GWINNER        FAIR      59  59 100 N7        29.80R
SHEYENNE NWR     N/A     59  59 100 E3        29.95
ROLLA          CLOUDY    52  52 100 N10       29.90R
 ***** THE ABOVE OBSERVATIONS ARE NON NWS ARE NOT QUALITY
       CONTROLLED AND MAY MIS-REPORT RAIN FOR SNOW...
$$

  *****  WEATHER ACROSS NORTHERN MINNESOTA  *****

CITY           SKY/WX    TMP DP  RH WIND       PRES   REMARKS
FLAG ISLAND    FAIR      61  55  82 E5        29.85F
WARROAD        FAIR      57  54  88 E3        29.86S
ROSEAU         FAIR      57  52  82 E8        29.85S
HALLOCK        CLOUDY    63  59  88 E5        29.83R
THF RVR FALLS  FAIR      57  52  82 E5        29.85R
BAUDETTE       CLOUDY    59  53  80 NE6       29.84F
WASKISH        CLOUDY    59  55  88 NE5       29.83F
CROOKSTON      CLOUDY    61  57  88 SE5       29.83R
STEPHEN NDAWN    N/A     61  57  88 SE2         N/A
GREENBUSH NDAW   N/A     57  55  94 NE3         N/A
$$
  *****  WEATHER ACROSS CENTRAL AND WEST MINNESOTA  *****

CITY           SKY/WX    TMP DP  RH WIND       PRES   REMARKS
FOSSTON        FAIR      54  52  94 E3        29.84S
BEMIDJI        CLOUDY    57  54  91 NE5       29.83F
PARK RAPIDS    MOCLDY    58  54  86 NE3       29.81S
ELBOW LAKE     CLOUDY    58  56  91 NE6       29.81S
WADENA         CLOUDY    55  54  94 N3        29.81S
DETROIT LAKES  MOCLDY    59  54  82 CALM      29.83S
MOORHEAD       FAIR      59  57  94 CALM      29.81S
FERGUS FALLS   CLOUDY    61  55  82 CALM      29.78S
MORRIS MN      MOCLDY    59  57  94 N5        29.77F
STAPLES        CLOUDY    55  54  94 CALM      29.81S
$$
  *****  WEATHER ELSEWHERE ACROSS MINNESOTA  *****

CITY           SKY/WX    TMP DP  RH WIND       PRES   REMARKS
DULUTH         DRIZZLE   53  51  93 E10       29.78F FOG
INTRNTL FALLS  CLOUDY    61  54  77 N3        29.84F
ELY            RAIN      55  54  94 NE5       29.82F
CLOQUET        LGT RAIN  52  50  93 NE3       29.79S
WHEATON        CLOUDY    61  57  88 E5        29.80F
BRAINERD       CLOUDY    56  54  93 NE6       29.81R
HIBBING        CLOUDY    54  53  97 N5        29.81F
ALEXANDRIA     CLOUDY    59  55  87 E3        29.81R
SAINT CLOUD    CLOUDY    57  56  96 CALM      29.78F FOG
MINNEAPOLIS    CLOUDY    63  59  87 N3        29.75F
$$

  *****  WEATHER ACROSS SOUTH DAKOTA  *****

CITY           SKY/WX    TMP DP  RH WIND       PRES   REMARKS
SIOUX FALLS    MOCLDY    62  58  86 N9        29.73F
BROOKINGS      FAIR      59  57  93 NE5       29.76S
WATERTOWN      MOCLDY    57  55  93 N3        29.76F
HURON          CLOUDY    60  58  92 N5        29.76F
SISSETON         N/A     61  58  90 E5        29.77F
ABERDEEN       LGT RAIN  60  58  92 CALM      29.79F
MITCHELL       CLOUDY    62  59  90 N7        29.75F
PIERRE         CLOUDY    59  53  80 NW6       29.79F
MOBRIDGE       CLOUDY    58  53  84 CALM      29.80S
RAPID CITY     CLEAR     46  44  93 NW5       29.86S
$$

  *****  SOME WEATHER IN NEARBY STATES *****

CITY           SKY/WX    TMP DP  RH WIND       PRES   REMARKS
GLASGOW MT     MOCLDY    55  49  80 E10       29.83S
GREAT FALLS MT CLOUDY    49  43  80 W6        29.94S
CHEYENNE WY    CLEAR     43  37  79 NW7       29.95S
SCOTTSBLUFF NE CLEAR     44  41  89 SE3       29.91R
OMAHA NE       CLOUDY    62  59  90 E8        29.71S
DES MOINES IA  LGT RAIN  65  61  87 S5        29.73F
DAVENPORT IA   CLOUDY    69  65  86 S13G25    29.74F
CHICAGO IL     MOCLDY    68  65  90 S8        29.86S
EAU CLAIRE WI  FOG       63  63 100 W3        29.74S VSB 1/4
LA CROSSE WI   MOCLDY    67  65  93 CALM      29.73S
$$

  *****  SOME NATIONAL WEATHER *****

CITY           SKY/WX    TMP DP  RH WIND       PRES   REMARKS
LA GUARDIA NY  FAIR      74  65  73 S9        30.07S
RALEIGH NC     FAIR      64  58  80 CALM      30.15S
ATLANTA GA     FAIR      71  59  65 SE8       30.08F
NEW ORLEANS LA MOCLDY    76  71  85 SE6       29.95F
OKLAHOMA CITY  FAIR      63  61  93 S8        29.80R
ALBUQUERQUE NM PTCLDY    61  26  26 NW7       29.99R
SALT LAKE CITY PTCLDY    55  45  68 W6        29.96R
LOS ANGELES CA CLOUDY    60  55  83 CALM      29.88F
BOISE ID       CLEAR     53  30  41 W8        29.99R
SEATTLE WA     MOCLDY    52  42  69 SW10      30.14S
$$

*** WEATHER ACROSS MANITOBA...SASKATCHEWAN AND ONTARIO ***
                ***ONTARIO***

CITY           SKY/WX    TMP DP  RH WIND       PRES   REMARKS
GERALDTON      LGT RAIN  57  57 100 E9        29.94F
THUNDER BAY    LGT RAIN  52  52 100 SW2       29.86F FOG
SIOUX LOOKOUT  CLOUDY    59  57  94 VRB2      29.91S
TORONTO        PTCLDY    70  59  68 N3        30.01S
BIG TROUT LK   CLOUDY    39  37  93 E8        30.17F
PICKLE LAKE    NOT AVBL
DRYDEN         CLOUDY    59  57  94 NE10      29.89S
KENORA         MOCLDY    57  55  94 NE9       29.89F
$$
                *** MANITOBA***

CITY           SKY/WX    TMP DP  RH WIND       PRES   REMARKS
BRANDON        CLOUDY    54  48  82 NE15G22   29.91S
DAUPHIN        CLOUDY    50  45  81 N12       29.99S
ISLAND LAKE    CLOUDY    43  39  87 NE8       30.14F
PILOT MOUND      N/A     54  52  94 N9          N/A
THE PAS        CLOUDY    45  37  76 E8        30.10R
THOMPSON       CLOUDY    39  34  81 E3        30.21R
WINNIPEG       PTCLDY    55  54  94 NE12      29.86
LYNN LAKE      PTCLDY    37  34  87 SE10      30.16S
CHURCHILL      FLURRIES  28  27  93 S10       30.37S WCI  19
$$
                ***SASKATCHEWAN***

CITY           SKY/WX    TMP DP  RH WIND       PRES   REMARKS
ESTEVAN        LGT RAIN  52  52 100 E10       29.90S FOG
KINDERSLEY     LGT RAIN  54  52  94 E9        29.85F
LLOYDMINSTER   LGT RAIN  54  52  94 SE16      29.84S
PRINCE ALBERT  PTCLDY    46  45  93 E10       29.96S
REGINA         PTCLDY    52  48  87 E9        29.92S
YORKTON        CLOUDY    48  45  87 E3        29.99F
N. BATTLEFORD  CLOUDY    57  55  94 SE7       29.89R
LA RONGE       CLEAR     45  39  81 E7        30.02F
SASKATOON      PTCLDY    57  50  77 SE12      29.90F
SWIFT CURRENT  LGT RAIN  55  48  76 CALM      29.87R
$$
NOTE: THESE ARE AUTOMATED STATIONS WITH LIMITED QUALITY CONTROL
      "FAIR" INDICATES FEW OR NO CLOUDS BELOW 12,000 FEET WITH NO
      SIGNIFICANT WEATHER AND/OR OBSTRUCTIONS TO VISIBILITY.
      SKY/WX - SKY CONDITION AND SIGNIFICANT WEATHER.
      TMP - AIR TEMPERATURE.    DP   - DEWPOINT TEMPERATURE.
      RH  - RELATIVE HUMIDITY.  PRES - PRESSURE.
      HX  - HEAT INDEX.         WCI  - WIND CHILL INDEX.
$




USA.gov is the U.S. government's official web portal to all federal, state and local government web resources and services.